Regional Weather Roundup
Issued by NWS Grand Forks, ND

Home | Current Version | Previous Version | Text Only | Print | Product List | Glossary Off
Versions: 1 2 3 4 5 6 7 8 9 10 11 12 13 14 15 16 17 18 19 20 21 22 23 24 25 26 27 28 29 30 31 32 33 34 35 36 37 38 39 40 41 42 43 44 45 46 47 48 49 50

000
ASUS43 KFGF 200010
RWRFGF
PRAIRIE TO PINES  WEATHER ROUNDUP
NATIONAL WEATHER SERVICE EASTERN NORTH DAKOTA/GRAND FORKS ND
700 PM CDT TUE AUG 19 2014

 **SATELLITE DATA USED TO AUGMENT SKY COVER AT AUTOMATED STATIONS**
 *****  WEATHER ACROSS EASTERN NORTH DAKOTA  *****

CITY           SKY/WX    TMP DP  RH WIND       PRES   REMARKS
GRAND FORKS    MOSUNNY   80  64  58 E7        29.72S
6HR MIN TEMP:  77; 6HR MAX TEMP:  83;

GRAND FRKS AFB SUNNY     80  65  61 E6        29.74S
GRAND FRKS NWS   N/A     34 N/A N/A SE6         N/A
DEVILS LAKE    SUNNY     81  63  54 SE6       29.72F
6HR MIN TEMP:  79; 6HR MAX TEMP:  82;

FARGO          SUNNY     80  65  59 E5        29.74R
WAHPETON ARPT  CLEAR     77  61  57 W5        29.75F
$$

 ***** WEATHER ACROSS CENTRAL AND WESTERN NORTH DAKOTA  *****

CITY           SKY/WX    TMP DP  RH WIND       PRES   REMARKS
BISMARCK       SUNNY     85  62  46 SE7       29.72F
6HR MIN TEMP:  84; 6HR MAX TEMP:  88;

MINOT          SUNNY     84  55  36 SE8       29.70F
6HR MIN TEMP:  82; 6HR MAX TEMP:  87;

JAMESTOWN      PTSUNNY   78  66  66 E3        29.74F
6HR MIN TEMP:  78; 6HR MAX TEMP:  82;

MINOT AFB      SUNNY     83  59  43 E10       29.70F
GARRISON         N/A     82  61  48 E7        29.71F
WILLISTON      SUNNY     90  55  30 SE10      29.65F
6HR MIN TEMP:  84; 6HR MAX TEMP:  93;

DICKINSON      MOSUNNY   83  61  47 S9        29.70F
6HR MIN TEMP:  82; 6HR MAX TEMP:  87;

HETTINGER      PTSUNNY   84  54  35 SE9       29.73F
6HR MIN TEMP:  83; 6HR MAX TEMP:  89;

$$

 *****  OTHER AIRPORT OBSERVATIONS IN OUR AREA  *****

CITY           SKY/WX    TMP DP  RH WIND       PRES   REMARKS
WALHALLA         N/A     77  66  69 E6          N/A
GRAFTON AIRPOR FAIR      79  64  61 E7        29.73S
VALLEY CITY AR FAIR      81  63  54 W5        29.75S
CANDO          FAIR      77  66  69 S6        29.74S
CAVALIER APRT  FAIR      79  64  61 E6        29.72F
GWINNER        CLEAR     81  64  57 SW3       29.76F
SHEYENNE NWR     N/A     79  67  66 E3        29.95S
ROLLA            N/A     77  63  61 S7        29.76S
 ***** THE ABOVE OBSERVATIONS ARE NON NWS ARE NOT QUALITY
       CONTROLLED AND MAY MIS-REPORT RAIN FOR SNOW...
$$

  *****  WEATHER ACROSS NORTHERN MINNESOTA  *****

CITY           SKY/WX    TMP DP  RH WIND       PRES   REMARKS
FLAG ISLAND    SUNNY     72  61  68 SE5       29.76S
WARROAD        SUNNY     72  64  78 E7        29.78R
ROSEAU         SUNNY     73  64  73 E8        29.76S
HALLOCK        SUNNY     81  63  54 SE3       29.73S
THF RVR FALLS  MOSUNNY   75  61  60 E6        29.76S
6HR MIN TEMP:  73; 6HR MAX TEMP:  79;

BAUDETTE       SUNNY     71  61  70 E7        29.77S
6HR MIN TEMP:  70; 6HR MAX TEMP:  76;

WASKISH        CLOUDY    72  64  78 CALM      29.77F
CROOKSTON      SUNNY     79  63  57 CALM      29.74F
$$
  *****  WEATHER ACROSS CENTRAL AND WEST MINNESOTA  *****

CITY           SKY/WX    TMP DP  RH WIND       PRES   REMARKS
FOSSTON        SUNNY     79  66  65 CALM      29.77S
BEMIDJI        SUNNY     73  60  62 N3        29.78R
PARK RAPIDS    SUNNY     76  59  55 N8        29.77S
6HR MIN TEMP:  74; 6HR MAX TEMP:  79;

ELBOW LAKE     FAIR      77  63  62 N5        29.76S
6HR MIN TEMP:  75; 6HR MAX TEMP:  79;

WADENA         SUNNY     75  63  64 NW5       29.76S
DETROIT LAKES  SUNNY     77  63  61 CALM      29.78S
MOORHEAD       SUNNY     79  66  65 E3        29.75S
FERGUS FALLS   MOSUNNY   79  59  50 CALM      29.75S
MORRIS MN      SUNNY     81  64  57 N3        29.75F
STAPLES        MOSUNNY   75  61  60 N6        29.76S
$$
  *****  WEATHER ELSEWHERE ACROSS MINNESOTA  *****

CITY           SKY/WX    TMP DP  RH WIND       PRES   REMARKS
DULUTH         PTSUNNY   68  60  75 NE5       29.77R
6HR MIN TEMP:  67; 6HR MAX TEMP:  72; 6HR PCP:  0.12;

INTRNTL FALLS  SUNNY     70  60  70 NE5       29.78S
6HR MIN TEMP:  68; 6HR MAX TEMP:  73;

ELY            CLOUDY    63  61  94 CALM      29.79R
CLOQUET        CLOUDY    70  61  73 NE5       29.76S
WHEATON        SUNNY     77  64  65 N3        29.77S
BRAINERD       MOSUNNY   72  63  73 N6        29.76S
6HR MIN TEMP:  67; 6HR MAX TEMP:  76; 6HR PCP: TRACE;

HIBBING        PTSUNNY   69  60  73 CALM      29.78R
6HR MIN TEMP:  67; 6HR MAX TEMP:  74; 6HR PCP:  0.01;

ALEXANDRIA     MOSUNNY   78  61  55 NW7       29.78S
6HR MIN TEMP:  75; 6HR MAX TEMP:  80;

SAINT CLOUD    PTSUNNY   81  64  56 N5        29.74R
6HR MIN TEMP:  77; 6HR MAX TEMP:  83; 6HR PCP: TRACE;

MINNEAPOLIS    MOSUNNY   79  62  56 NW9       29.74S
6HR MIN TEMP:  75; 6HR MAX TEMP:  81;

$$

  *****  WEATHER ACROSS SOUTH DAKOTA  *****

CITY           SKY/WX    TMP DP  RH WIND       PRES   REMARKS
SIOUX FALLS    MOSUNNY   83  62  49 NW5       29.78F
6HR MIN TEMP:  81; 6HR MAX TEMP:  85;

BROOKINGS      NOT AVBL
WATERTOWN      SUNNY     79  60  52 W3        29.78F
6HR MIN TEMP:  78; 6HR MAX TEMP:  82;

HURON          SUNNY     83  61  47 E8        29.75S
6HR MIN TEMP:  83; 6HR MAX TEMP:  89;

SISSETON         N/A     78  68  71 E3        29.74F
ABERDEEN       SUNNY     80  64  58 SE7       29.75S
6HR MIN TEMP:  80; 6HR MAX TEMP:  85;

MITCHELL       SUNNY     82  64  54 E7        29.76S
PIERRE         SUNNY     87  59  38 E12       29.71F
6HR MIN TEMP:  84; 6HR MAX TEMP:  91;

MOBRIDGE       MOSUNNY   83  62  49 E10       29.71F
RAPID CITY     CLOUDY    81  67  62 N5        29.75F
6HR MIN TEMP:  78; 6HR MAX TEMP:  85;

$$

  *****  SOME WEATHER IN NEARBY STATES *****

CITY           SKY/WX    TMP DP  RH WIND       PRES   REMARKS
GLASGOW MT     SUNNY     93  44  18 W9        29.59F
6HR MIN TEMP:  86; 6HR MAX TEMP:  94;

GREAT FALLS MT SUNNY     85  37  18 S3        29.69F
6HR MIN TEMP:  82; 6HR MAX TEMP:  89;

CHEYENNE WY    PTSUNNY   74  47  38 N13       29.96F
6HR MIN TEMP:  66; 6HR MAX TEMP:  86; 6HR PCP:  0.06;

SCOTTSBLUFF NE LGT RAIN  78  52  40 NE16G28   29.79F
6HR MIN TEMP:  76; 6HR MAX TEMP:  96; 6HR PCP:  0.02;

OMAHA NE       MOSUNNY   86  64  47 E7        29.78F
6HR MIN TEMP:  86; 6HR MAX TEMP:  90;

DES MOINES IA  MOSUNNY   84  64  50 W5        29.78S
6HR MIN TEMP:  83; 6HR MAX TEMP:  87;

DAVENPORT IA   CLEAR     80  64  58 W9        29.77R
6HR MIN TEMP:  80; 6HR MAX TEMP:  85;

CHICAGO IL     MOCLDY    82  62  50 NW14      29.71S
6HR MIN TEMP:  80; 6HR MAX TEMP:  86;

EAU CLAIRE WI  PTSUNNY   72  67  84 CALM      29.74S
6HR MIN TEMP:  68; 6HR MAX TEMP:  78; 6HR PCP:  0.04;

LA CROSSE WI   MOSUNNY   79  63  57 N6        29.73S
6HR MIN TEMP:  77; 6HR MAX TEMP:  82;

$$

  *****  SOME NATIONAL WEATHER *****

CITY           SKY/WX    TMP DP  RH WIND       PRES   REMARKS
LA GUARDIA NY  PTCLDY    74  62  66 S10       29.90R
6HR MIN TEMP:  74; 6HR MAX TEMP:  80;

RALEIGH NC     MOCLDY    79  70  74 CALM      29.85R
6HR MIN TEMP:  79; 6HR MAX TEMP:  86;

ATLANTA GA     MOCLDY    78  67  68 NE3       29.93R
6HR MIN TEMP:  72; 6HR MAX TEMP:  86; 6HR PCP:  0.34;

NEW ORLEANS LA CLOUDY    84  75  74 SW5       29.95F HX  92
6HR MIN TEMP:  80; 6HR MAX TEMP:  94; 6HR PCP:  0.14;

OKLAHOMA CITY  PTSUNNY   91  67  44 S14G21    29.83R HX  94
6HR MIN TEMP:  91; 6HR MAX TEMP:  95;

ALBUQUERQUE NM PTSUNNY   86  41  20 SW13      29.95S
6HR MIN TEMP:  81; 6HR MAX TEMP:  90;

SALT LAKE CITY MOSUNNY   74  54  49 SE13      29.86F
6HR MIN TEMP:  66; 6HR MAX TEMP:  74; 6HR PCP:  0.02;

LOS ANGELES CA CLOUDY    71  62  73 W15       29.86S
6HR MIN TEMP:  71; 6HR MAX TEMP:  78;



USA.gov is the U.S. government's official web portal to all federal, state and local government web resources and services.